Location: *
(49.6619°S, 177.4603°W)
Time: 06:04:37
(UTC+00:00)

Cosmos 2150 Rocket - Pass Details

Date: 31 January 2023
Orbit: 748 x 807 km, 74.0° (Epoch: 01 April)

Event Time Altitude Azimuth Distance (km) Brightness Sun altitude
Rises 10:51:09 0° 203° (SSW) 3,240 8.8 -21.1°
Reaches altitude 10° 10:53:33 10° 200° (SSW) 2,308 7.7 -21.2°
Maximum altitude 10:58:46 68° 116° (ESE) 823 4.1 -21.4°
Enters shadow 11:00:19 44° 50° (NE) 1,045 4.3 -21.5°
